Weather History for Belleville, IL

Change the Weather History Date:

Thursday, May 23, 2013

  Actual Average Record
Temperature  
Mean Temperature 60 °F -  
Max Temperature 65 °F 79 °F 92 °F (1975)
Min Temperature 54 °F 55 °F 40 °F (1961)
Degree Days  
Heating Degree Days 4    
Growing Degree Days 10 (Base 50)    
Moisture  
Dew Point 56 °F    
Average Humidity 82    
Maximum Humidity 95    
Minimum Humidity 64    
Precipitation  
Precipitation 0.00 in - - ()
Sea Level Pressure  
Sea Level Pressure 30.06 in    
Wind  
Wind Speed 11 mph (NW)    
Max Wind Speed 20 mph    
Max Gust Speed 25 mph    
Visibility 10 miles    
Events Rain    
Averages and records for this station are not official NWS values.
T = Trace of Precipitation, MM = Missing Value Source: NWS Daily Summary

Daily Weather History Graph

Daily Weather History Graph

Search for Another Location

Airport:

Trip Planner

Search our weather history database for the weather conditions in past years. The results will help you decide how hot, cold, wet, or windy it might be!

Date:

Astronomy

May. 23, 2013 Rise Set
Actual Time 5:41 AM CDT 8:11 PM CDT
Civil Twilight 5:10 AM CDT 8:41 PM CDT
Nautical Twilight 4:33 AM CDT 9:19 PM CDT
Astronomical Twilight 3:51 AM CDT 10:02 PM CDT
Moon 6:44 PM CDT (5/23) 4:25 AM CDT (5/23)
Length of Visible Light 15h 30m
Length of Day
14h 29m
Waxing Gibbous, 97% of the Moon is Illuminated
May 23
Waxing Gibbous
May 24
Full
May 31
Last Quarter
Jun 8
New
Jun 16
First Quarter

Hourly Weather History & Observations

Time (CDT) Temp. Dew Point Humidity Pressure Visibility Wind Dir Wind Speed Gust Speed Precip Events Conditions
12:58 AM 60.8 °F 55.4 °F 82% 29.88 in 10.0 mi SW 5.8 mph - N/A   Scattered Clouds
1:58 AM 60.6 °F 55.2 °F 82% 29.88 in 10.0 mi SW 4.6 mph - N/A   Mostly Cloudy
2:58 AM 62.6 °F 54.7 °F 75% 29.88 in 10.0 mi West 6.9 mph - N/A   Overcast
3:58 AM 62.6 °F 54.9 °F 76% 29.89 in 10.0 mi West 6.9 mph - N/A   Overcast
4:58 AM 62.6 °F 53.4 °F 72% 29.91 in 10.0 mi West 9.2 mph - N/A   Overcast
5:58 AM 61.5 °F 51.6 °F 70% 29.91 in 10.0 mi WNW 12.7 mph - N/A   Mostly Cloudy
6:58 AM 61.2 °F 52.9 °F 74% 29.94 in 10.0 mi West 6.9 mph - N/A   Partly Cloudy
7:58 AM 64.0 °F 54.5 °F 71% 29.94 in 10.0 mi WNW 12.7 mph - N/A   Mostly Cloudy
8:18 AM 62.6 °F 51.8 °F 68% 29.95 in 10.0 mi WNW 16.1 mph 20.7 mph N/A   Overcast
8:23 AM 62.6 °F 51.8 °F 68% 29.96 in 10.0 mi WNW 18.4 mph 20.7 mph N/A   Overcast
8:58 AM 63.0 °F 52.9 °F 70% 29.98 in 10.0 mi WNW 11.5 mph - N/A   Overcast
9:58 AM 63.9 °F 51.3 °F 64% 30.00 in 10.0 mi West 15.0 mph - N/A   Mostly Cloudy
10:58 AM 64.8 °F 54.0 °F 68% 29.99 in 10.0 mi NW 13.8 mph 23.0 mph N/A   Overcast
11:03 AM 64.4 °F 53.6 °F 68% 29.99 in 10.0 mi NW 16.1 mph 23.0 mph N/A   Overcast
11:23 AM 66.2 °F 55.4 °F 68% 29.99 in 10.0 mi NW 16.1 mph - N/A   Overcast
11:28 AM 64.4 °F 55.4 °F 73% 30.00 in 10.0 mi WNW 16.1 mph - N/A   Overcast
11:58 AM 63.7 °F 54.9 °F 73% 30.04 in 10.0 mi West 15.0 mph - N/A   Overcast
12:58 PM 63.5 °F 55.0 °F 74% 30.06 in 10.0 mi West 13.8 mph 18.4 mph N/A   Overcast
12:59 PM 62.6 °F 55.4 °F 77% 30.05 in 10.0 mi West 16.1 mph 20.7 mph N/A   Light Drizzle
1:08 PM 62.6 °F 57.2 °F 82% 30.05 in 10.0 mi West 15.0 mph - N/A   Overcast
1:58 PM 63.1 °F 58.1 °F 84% 30.06 in 10.0 mi West 12.7 mph - 0.00 in   Overcast
2:03 PM 66.2 °F 59.0 °F 78% 30.05 in 10.0 mi West 15.0 mph - N/A   Mostly Cloudy
2:08 PM 66.2 °F 57.2 °F 73% 30.06 in 10.0 mi West 15.0 mph 19.6 mph N/A   Overcast
2:40 PM 64.4 °F 59.0 °F 83% 30.07 in 10.0 mi WNW 16.1 mph 21.9 mph N/A Rain Light Rain
2:49 PM 62.6 °F 59.0 °F 88% 30.07 in 10.0 mi WNW 19.6 mph - N/A   Overcast
2:58 PM 63.3 °F 58.6 °F 85% 30.08 in 10.0 mi WNW 17.3 mph - 0.00 in   Mostly Cloudy
3:08 PM 62.6 °F 60.8 °F 94% 30.08 in 9.0 mi WNW 17.3 mph - N/A Rain Light Rain
3:25 PM 62.6 °F 60.8 °F 94% 30.08 in 10.0 mi WNW 16.1 mph - N/A   Mostly Cloudy
3:30 PM 62.6 °F 59.0 °F 88% 30.08 in 10.0 mi NW 15.0 mph - N/A   Mostly Cloudy
3:40 PM 62.6 °F 59.0 °F 88% 30.09 in 10.0 mi NW 15.0 mph - N/A Rain Light Rain
3:45 PM 62.6 °F 60.8 °F 94% 30.09 in 10.0 mi NW 11.5 mph - N/A Rain Light Rain
3:58 PM 62.1 °F 60.6 °F 95% 30.11 in 10.0 mi NW 12.7 mph 20.7 mph 0.00 in Rain Light Rain
3:59 PM 62.6 °F 60.8 °F 94% 30.10 in 10.0 mi NNW 16.1 mph - N/A   Overcast
4:03 PM 62.6 °F 59.0 °F 88% 30.10 in 10.0 mi NNW 18.4 mph 25.3 mph N/A Rain Light Rain
4:13 PM 60.8 °F 59.0 °F 94% 30.10 in 10.0 mi NNW 12.7 mph - N/A Rain Light Rain
4:17 PM 60.8 °F 59.0 °F 94% 30.10 in 10.0 mi NNW 10.4 mph - N/A   Overcast
4:42 PM 62.6 °F 59.0 °F 88% 30.10 in 10.0 mi NNW 11.5 mph - N/A   Mostly Cloudy
4:58 PM 63.1 °F 59.2 °F 87% 30.12 in 10.0 mi NNW 10.4 mph - 0.00 in   Overcast
4:59 PM 62.6 °F 59.0 °F 88% 30.11 in 10.0 mi NNW 9.2 mph - N/A Rain Light Rain
5:10 PM 62.6 °F 57.2 °F 82% 30.11 in 10.0 mi North 12.7 mph - N/A   Overcast
5:16 PM 60.8 °F 57.2 °F 88% 30.12 in 10.0 mi NNW 10.4 mph - N/A Rain Light Rain
5:26 PM 60.8 °F 57.2 °F 88% 30.12 in 10.0 mi North 10.4 mph - N/A   Overcast
5:33 PM 60.8 °F 57.2 °F 88% 30.12 in 10.0 mi North 15.0 mph 19.6 mph N/A Rain Light Rain
5:48 PM 60.8 °F 57.2 °F 88% 30.13 in 10.0 mi NNW 11.5 mph - N/A   Overcast
5:53 PM 60.8 °F 57.2 °F 88% 30.13 in 10.0 mi North 9.2 mph - N/A   Mostly Cloudy
5:58 PM 60.8 °F 57.0 °F 87% 30.14 in 10.0 mi NNW 9.2 mph - 0.00 in   Mostly Cloudy
6:58 PM 61.9 °F 55.8 °F 80% 30.15 in 10.0 mi North 10.4 mph - N/A   Mostly Cloudy
7:38 PM 60.8 °F 55.4 °F 82% 30.16 in 10.0 mi North 9.2 mph - N/A   Mostly Cloudy
7:58 PM 61.3 °F 55.2 °F 80% 30.17 in 10.0 mi North 6.9 mph - N/A   Overcast
8:18 PM 60.8 °F 55.4 °F 82% 30.17 in 10.0 mi North 6.9 mph - N/A   Overcast
8:58 PM 59.4 °F 54.7 °F 84% 30.18 in 10.0 mi NNE 6.9 mph - N/A   Scattered Clouds
9:58 PM 57.0 °F 53.2 °F 87% 30.21 in 10.0 mi NNE 5.8 mph - N/A   Clear
10:58 PM 55.8 °F 52.3 °F 88% 30.23 in 10.0 mi NNE 5.8 mph - N/A   Clear
11:58 PM 54.3 °F 51.4 °F 90% 30.24 in 10.0 mi NNE 6.9 mph - N/A   Clear